Home   Weather   Inverness   Past weeks
Flag for United Kingdom

Past Weather in Inverness, Scotland, United Kingdom — Yesterday and Last 2 Weeks

Now
36 °F

Scattered showers. Scattered clouds.


Feels Like: 28 °F
Forecast: 38 / 28 °F
Wind: 10 mph from Northwest

Location: Inverness / Dalcross

Current Time: Jan 17, 2019 at 11:06:40 am

Latest Report: Jan 17, 2019 at 10:20 am


Visibility: N/A

Pressure: 29.95 "Hg

Humidity: 81%

Dew Point: 30 °F

Location of InvernessLocation

Past Weather in Inverness — Graph

°F

Inverness Temperature Yesterday

Maximum temperature yesterday: 45 °F (at 1:50 am)
Minimum temperature yesterday: 34 °F (at 10:20 pm)
Average temperature yesterday: 39 °F

High & Low Weather Summary for the Past Weeks

 TemperatureHumidityPressure
High52 °F (Jan 7, 4:20 am)100% (Jan 6, 5:50 am)30.86 "Hg (Jan 6, 5:50 am)
Low25 °F (Jan 2, 4:20 pm)70% (Jan 16, 9:50 pm)29.27 "Hg (Jan 16, 10:50 am)
Average42 °F86%30.21 "Hg
* Reported Jan 2 9:20 am — Jan 17 9:50 am, Inverness. Weather by CustomWeather, © 2019

Note: Actual official high and low records may vary slightly from our data, if they occured in-between our weather recording intervals... More about our weather records

Advertising

Inverness Weather History for the Previous 24 Hours

Scroll right to see more
 ConditionsComfort  
Time TempWeatherWind HumidityBarometerVisibility
9:50 am
Thu, Jan 17
34 °FScattered showers. Scattered clouds.6 mph81%29.95 "HgN/A
9:20 am34 °FScattered clouds.8 mph87%29.92 "HgN/A
8:50 am32 °FScattered showers. Scattered clouds.5 mph87%29.92 "HgN/A
8:20 am34 °FPassing clouds.7 mph87%29.89 "HgN/A
7:50 am34 °FPassing clouds.10 mph87%29.89 "HgN/A
7:20 am34 °FPassing clouds.8 mph87%29.86 "HgN/A
6:50 am36 °FPassing clouds.9 mph75%29.86 "HgN/A
6:20 am34 °FPassing clouds.8 mph87%29.83 "HgN/A
5:50 am34 °FPassing clouds.10 mph87%29.80 "HgN/A
5:20 am34 °FPassing clouds.12 mph87%29.80 "HgN/A
4:50 am34 °FLight snow. Partly cloudy.21 mph87%29.77 "Hg4 mi
4:20 am34 °FPassing clouds.13 mph87%29.77 "HgN/A
3:50 am34 °FPassing clouds.13 mph87%29.74 "HgN/A
3:20 am34 °FLight snow. Partly cloudy.16 mph87%29.74 "Hg5 mi
2:50 am32 °FPassing clouds.9 mph93%29.71 "HgN/A
2:20 am32 °FLight snow. Partly cloudy.16 mph93%29.71 "Hg1 mi
1:50 am30 °FChilly.10 mph93%29.68 "HgN/A
1:20 am30 °FPassing clouds.9 mph93%29.68 "HgN/A
12:50 am32 °FChilly.9 mph87%29.68 "HgN/A
12:20 am32 °FPassing clouds.15 mph93%29.65 "HgN/A
11:50 pm
Wed, Jan 16
34 °FLight snow. Passing clouds.17 mph81%29.68 "HgN/A
11:20 pm34 °FChilly.14 mph81%29.65 "HgN/A
10:50 pm34 °FPassing clouds.14 mph81%29.62 "HgN/A
10:20 pm34 °FChilly.12 mph75%29.62 "HgN/A
9:50 pm36 °FChilly.8 mph70%29.62 "HgN/A
9:20 pm36 °FPassing clouds.7 mph75%29.59 "HgN/A
8:50 pm36 °FScattered showers. Partly cloudy.8 mph81%29.56 "HgN/A
8:20 pm36 °FScattered showers. Partly cloudy.10 mph87%29.56 "HgN/A
7:50 pm36 °FPartly cloudy.14 mph93%29.53 "HgN/A
7:20 pm37 °FScattered showers. Partly cloudy.16 mph87%29.50 "HgN/A
6:50 pm37 °FLight rain. Partly cloudy.16 mph87%29.47 "HgN/A
5:50 pm37 °FPartly cloudy.10 mph93%29.42 "HgN/A
5:20 pm37 °FScattered showers. Partly cloudy.12 mph93%29.39 "HgN/A
4:50 pm37 °FScattered showers. Partly cloudy.12 mph87%29.39 "HgN/A
4:20 pm37 °FPartly cloudy.13 mph93%29.36 "HgN/A
3:50 pm37 °FBroken clouds.7 mph93%29.36 "HgN/A
3:20 pm37 °FScattered showers. Broken clouds.5 mph93%29.36 "HgN/A
2:50 pm37 °FScattered showers. Partly sunny.5 mph93%29.36 "HgN/A
2:20 pm36 °FLight rain. Mostly cloudy.3 mph100%29.33 "Hg5 mi
1:50 pm37 °FScattered showers. Broken clouds.7 mph93%29.33 "HgN/A
12:50 pm41 °FScattered showers. Broken clouds.13 mph87%29.27 "HgN/A
12:20 pm39 °FScattered showers. Broken clouds.15 mph93%29.27 "HgN/A
11:50 am39 °FSprinkles. Broken clouds.14 mph93%29.27 "HgN/A
11:20 am41 °FScattered showers. Broken clouds.13 mph93%29.27 "HgN/A
Weather by CustomWeather, © 2019

See weather overview